Date String (YYYY-MM-DD hh:mm:ss) UTC,Instrument flags,absolute air pressure of the measurement (hPa),sample flow rate (lpm),inlet stack bypass flow (lpm),air temperature of the measurement (°C),ambient temperature measured by the external sensor (°C),aerosol sample conditioner tube jacket temperature (°C),OPC LED temperature (°C),internal box temperature (°C),relative humidity of the measurement (%),span deviation,mass concentration of particles derived from Lorenz-Mie calculation of OPC scattering (μg/m³),mass concentration of particles derived from Lorenz-Mie calculation of OPC scattering (μg/m³),mass concentration of particles derived from Lorenz-Mie calculation of OPC scattering (μg/m³)
DateTimeUTC,F1_M11,P_M11,Q1_M11,Q2_M11,T1_M11,T2_M11,T3_M11,T4_M11,T5_M11,U1_M11,ZSPAN_M11,X0_M11,X2_M11,X1_M11
2023-08-18 07:00:00,SystemResetWarning,0830.1,5.01,000.00,028.2,027.0,000.0,036.6,030.0,24.5,0000.0,0009.81,0005.57,0005.13
2023-08-18 07:01:00,SystemResetWarning,0830.0,5.01,000.00,028.2,026.7,000.0,036.5,030.0,24.4,0000.0,0009.72,0005.55,0005.12
2023-08-18 07:02:00,SystemResetWarning,0830.0,4.98,000.00,028.2,024.9,000.0,036.4,029.7,24.4,0000.0,0009.76,0005.48,0005.05
2023-08-18 07:03:00,SystemResetWarning,0830.0,5.00,000.00,028.1,023.7,000.0,036.3,029.4,24.6,0000.0,0010.22,0005.50,0005.05
2023-08-18 07:04:00,SystemResetWarning,0830.0,5.01,000.00,028.0,023.7,000.0,036.3,029.3,25.2,0000.0,0010.32,0005.56,0005.11
2023-08-18 07:05:00,SystemResetWarning,0830.0,5.01,000.00,027.9,024.1,000.0,036.3,029.2,25.1,0000.0,0010.37,0005.57,0005.13
2023-08-18 07:06:00,SystemResetWarning,0830.0,5.00,000.00,027.8,024.5,000.0,036.3,029.3,25.0,0000.0,0009.51,0005.61,0005.16
2023-08-18 07:07:00,SystemResetWarning,0830.0,5.00,000.00,027.8,025.0,000.0,036.3,029.4,24.9,0000.0,0009.15,0005.59,0005.16
2023-08-18 07:08:00,SystemResetWarning,0830.0,5.00,000.00,027.9,025.4,000.0,036.4,029.5,25.0,0000.0,0009.07,0005.51,0005.08
2023-08-18 07:09:00,SystemResetWarning,0830.1,5.00,000.00,027.9,025.7,000.0,036.4,029.6,25.1,0000.0,0008.76,0005.32,0004.94
2023-08-18 07:10:00,SystemResetWarning,0830.0,5.00,000.00,027.9,026.0,000.0,036.4,029.7,25.1,0000.0,0008.65,0005.18,0004.79
2023-08-18 07:11:00,SystemResetWarning,0830.0,5.01,000.00,028.0,026.3,000.0,036.4,029.7,25.0,0000.0,0008.44,0004.99,0004.61
2023-08-18 07:12:00,SystemResetWarning,0830.0,5.00,000.00,028.0,026.5,000.0,036.4,029.8,24.6,0000.0,0008.31,0004.86,0004.49
2023-08-18 07:13:00,SystemResetWarning,0830.0,4.99,000.00,028.0,026.7,000.0,036.5,029.8,24.5,0000.0,0008.12,0004.77,0004.42
2023-08-18 07:14:00,SystemResetWarning,0830.0,5.00,000.00,028.1,026.9,000.0,036.5,029.9,24.8,0000.0,0007.54,0004.63,0004.30
2023-08-18 07:15:00,SystemResetWarning,0830.0,5.00,000.00,028.1,027.0,000.0,036.5,030.0,24.8,0000.0,0007.37,0004.50,0004.16
2023-08-18 07:16:00,SystemResetWarning,0830.0,5.00,000.00,028.2,027.1,000.0,036.5,030.0,24.8,0000.0,0007.02,0004.38,0004.05
2023-08-18 07:17:00,SystemResetWarning,0830.0,4.98,000.00,028.2,025.9,000.0,036.5,029.9,24.9,0000.0,0006.81,0004.31,0003.98
2023-08-18 07:18:00,SystemResetWarning,0830.0,5.00,000.00,028.1,024.1,000.0,036.4,029.6,25.0,0000.0,0006.55,0004.25,0003.91
2023-08-18 07:19:00,SystemResetWarning,0830.0,5.01,000.00,028.0,023.6,000.0,036.3,029.4,25.2,0000.0,0006.54,0004.22,0003.88
2023-08-18 07:20:00,SystemResetWarning,0830.0,5.02,000.00,027.9,023.9,000.0,036.3,029.2,25.3,0000.0,0006.54,0004.19,0003.85
2023-08-18 07:21:00,SystemResetWarning,0830.0,4.99,000.00,027.8,024.3,000.0,036.3,029.2,25.4,0000.0,0007.13,0004.11,0003.79
2023-08-18 07:22:00,SystemResetWarning,0830.1,5.00,000.00,027.8,024.7,000.0,036.3,029.3,25.3,0000.0,0007.11,0004.07,0003.75
2023-08-18 07:23:00,SystemResetWarning,0830.0,5.00,000.00,027.8,025.2,000.0,036.4,029.4,25.4,0000.0,0007.18,0004.06,0003.74
2023-08-18 07:24:00,SystemResetWarning,0830.0,5.00,000.00,027.9,025.5,000.0,036.4,029.5,27.2,0000.0,0007.65,0004.05,0003.74
2023-08-18 07:25:00,SystemResetWarning,0830.0,5.00,000.00,027.9,025.9,000.0,036.4,029.6,27.5,0000.0,0007.67,0004.04,0003.73
2023-08-18 07:26:00,SystemResetWarning,0830.1,5.00,000.00,027.9,026.2,000.0,036.4,029.7,27.2,0000.0,0007.59,0004.00,0003.70
2023-08-18 07:27:00,SystemResetWarning,0830.0,5.00,000.00,028.0,026.4,000.0,036.4,029.7,27.5,0000.0,0007.54,0003.95,0003.69
2023-08-18 07:28:00,SystemResetWarning,0830.0,4.99,000.00,028.0,026.6,000.0,036.4,029.8,29.3,0000.0,0007.51,0003.91,0003.64
2023-08-18 07:29:00,SystemResetWarning,0830.0,5.00,000.00,028.1,026.8,000.0,036.5,029.9,30.6,0000.0,0007.45,0003.84,0003.60
2023-08-18 07:30:00,SystemResetWarning,0830.0,5.00,000.00,028.1,026.9,000.0,036.5,029.9,31.1,0000.0,0007.37,0003.79,0003.56
2023-08-18 07:31:00,SystemResetWarning,0830.0,5.00,000.00,028.2,027.1,000.0,036.5,030.0,31.2,0000.0,0007.55,0003.76,0003.55
2023-08-18 07:32:00,SystemResetWarning,0830.0,5.00,000.00,028.2,027.1,000.0,036.5,030.0,30.9,0000.0,0007.32,0003.78,0003.55
2023-08-18 07:33:00,SystemResetWarning,0830.0,4.98,000.00,028.2,025.9,000.0,036.5,029.9,31.0,0000.0,0007.14,0003.78,0003.56
2023-08-18 07:34:00,SystemResetWarning,0830.0,5.00,000.00,028.2,024.2,000.0,036.4,029.6,31.6,0000.0,0007.00,0003.76,0003.55
2023-08-18 07:35:00,SystemResetWarning,0830.0,5.00,000.00,028.1,023.6,000.0,036.3,029.4,32.5,0000.0,0006.06,0003.74,0003.53
2023-08-18 07:36:00,SystemResetWarning,0830.0,5.02,000.00,027.9,023.9,000.0,036.3,029.2,32.7,0000.0,0006.10,0003.72,0003.51
2023-08-18 07:37:00,SystemResetWarning,0830.0,4.99,000.00,027.9,024.3,000.0,036.3,029.2,32.6,0000.0,0006.13,0003.73,0003.52
2023-08-18 07:38:00,SystemResetWarning,0830.0,5.00,000.00,027.8,024.8,000.0,036.3,029.3,33.3,0000.0,0006.18,0003.74,0003.52
2023-08-18 07:39:00,SystemResetWarning,0830.1,5.01,000.00,027.9,025.2,000.0,036.4,029.4,33.7,0000.0,0006.25,0003.75,0003.53
2023-08-18 07:40:00,SystemResetWarning,0830.0,5.00,000.00,027.9,025.6,000.0,036.4,029.5,33.6,0000.0,0006.17,0003.74,0003.52
2023-08-18 07:41:00,SystemResetWarning,0830.0,4.99,000.00,027.9,025.9,000.0,036.4,029.6,33.6,0000.0,0006.56,0003.73,0003.52
2023-08-18 07:42:00,SystemResetWarning,0830.0,5.01,000.00,027.9,026.2,000.0,036.4,029.7,33.8,0000.0,0006.44,0003.74,0003.53
2023-08-18 07:43:00,SystemResetWarning,0830.1,5.00,000.00,028.0,026.4,000.0,036.4,029.7,33.7,0000.0,0006.18,0003.71,0003.53
2023-08-18 07:44:00,SystemResetWarning,0830.1,4.98,000.00,028.0,026.6,000.0,036.4,029.8,33.7,0000.0,0006.11,0003.69,0003.52
2023-08-18 07:45:00,SystemResetWarning,0830.1,5.00,000.00,028.1,026.8,000.0,036.5,029.9,34.0,0000.0,0006.13,0003.70,0003.53
2023-08-18 07:46:00,SystemResetWarning,0830.0,5.01,000.00,028.1,026.9,000.0,036.5,029.9,34.1,0000.0,0006.16,0003.71,0003.53
2023-08-18 07:47:00,SystemResetWarning,0830.0,5.01,000.00,028.2,027.1,000.0,036.5,030.0,33.8,0000.0,0006.22,0003.71,0003.53
2023-08-18 07:48:00,SystemResetWarning,0830.0,5.01,000.00,028.2,027.2,000.0,036.6,030.0,33.4,0000.0,0007.12,0003.72,0003.53
2023-08-18 07:49:00,SystemResetWarning,0830.0,4.99,000.00,028.3,027.2,000.0,036.6,030.1,33.5,0000.0,0008.00,0003.72,0003.52
2023-08-18 07:50:00,SystemResetWarning,0830.0,4.98,000.00,028.3,026.1,000.0,036.5,029.9,33.7,0000.0,0007.94,0003.71,0003.51
2023-08-18 07:51:00,SystemResetWarning,0830.0,5.01,000.00,028.2,024.3,000.0,036.4,029.6,33.6,0000.0,0007.99,0003.74,0003.52
2023-08-18 07:52:00,SystemResetWarning,0830.0,5.00,000.00,028.1,023.7,000.0,036.4,029.4,33.5,0000.0,0007.88,0003.82,0003.59
2023-08-18 07:53:00,SystemResetWarning,0830.1,5.00,000.00,028.0,023.8,000.0,036.3,029.2,33.4,0000.0,0008.21,0004.03,0003.76
2023-08-18 07:54:00,SystemResetWarning,0830.0,5.01,000.00,027.9,024.2,000.0,036.4,029.2,33.7,0000.0,0008.25,0004.19,0003.87
2023-08-18 07:55:00,SystemResetWarning,0830.1,4.99,000.00,027.9,024.7,000.0,036.4,029.3,33.7,0000.0,0008.45,0004.30,0003.97
2023-08-18 07:56:00,SystemResetWarning,0830.0,4.99,000.00,027.9,025.1,000.0,036.4,029.4,33.6,0000.0,0009.19,0004.54,0004.19
2023-08-18 07:57:00,SystemResetWarning,0830.0,5.00,000.00,027.9,025.5,000.0,036.4,029.5,33.5,0000.0,0010.29,0004.94,0004.55
2023-08-18 07:58:00,SystemResetWarning,0830.0,5.01,000.00,027.9,025.9,000.0,036.4,029.6,33.3,0000.0,0011.29,0005.42,0004.97
2023-08-18 07:59:00,SystemResetWarning,0830.0,5.01,000.00,027.9,026.1,000.0,036.4,029.7,33.0,0000.0,0011.83,0005.87,0005.39
